[[{"header":{"parameterUnit":"m.s-1","parameterCategory":1,"la1":30.2991,"la2":30.254,"lo1":-89.0895,"lo2":-89.0444,"dy":0.0017,"dx":0.0017,"nx":28,"ny":28,"refTime":"2025-03-23T21:00:00:Z","depth":0,"parameterNumber":2,"parameterNumberName":"U-component_of_WINDS"},"data":[0,0,0,0,0,0,0,0,0,0,0,0,0,0,0,0,0,0,0,0,0,0,0,0,0,0,0,0,0,0,0,0,0,0,0,0,0,0,0,0,0,0,0,0,0,0,0,0,0,0,0,0,0,0,0,0,0,0,-0.2344,-0.2344,0,-0.2319,-0.2319,-0.2318,-0.2298,-0.2297,-0.2297,-0.2297,-0.2271,-0.2271,-0.227,0,0,0,0,0,0,0,0,0,0,0,0,0,-0.2377,-0.2376,-0.2344,-0.2344,-0.2344,-0.2319,-0.2319,-0.2318,-0.2298,-0.2297,-0.2297,-0.2297,-0.2271,-0.2271,-0.227,0,0,0,0,0,0,0,0,0,0,0,0,0,-0.2358,-0.2376,-0.2344,-0.233,-0.2329,-0.2319,-0.2319,-0.2318,-0.2298,-0.2297,-0.2297,-0.2297,-0.2272,-0.2271,-0.227,-0.2272,0,0,-0.2268,-0.2268,0,0,0,0,0,0,0,0,-0.2359,-0.2357,-0.2333,-0.2331,-0.233,-0.2311,-0.2321,-0.2303,-0.2298,-0.2309,-0.2297,-0.2296,-0.2285,-0.2283,-0.2279,-0.2271,-0.227,-0.2268,-0.2268,-0.2267,-0.2267,0,0,0,0,0,0,0,-0.2361,-0.2358,-0.2334,-0.2332,-0.233,-0.2326,-0.2323,-0.2317,-0.2299,-0.2308,-0.2307,-0.2304,-0.2284,-0.228,-0.2278,-0.227,-0.2268,-0.2267,-0.2267,-0.2267,-0.2265,-0.2265,0,0,0,0,0,0,-0.2364,-0.2359,-0.2335,-0.2333,-0.2344,-0.2326,-0.2322,-0.2317,-0.2299,-0.2296,-0.2304,-0.2303,-0.2281,-0.2279,-0.2277,-0.228,-0.2267,-0.2267,-0.2266,-0.2265,-0.2265,-0.2266,0,0,0,0,0,0,-0.2365,-0.2362,-0.2336,-0.2346,-0.2342,-0.2325,-0.232,-0.2317,-0.2313,-0.2296,-0.2293,-0.2303,-0.2281,-0.2278,-0.2274,-0.2279,-0.2266,-0.2266,-0.2264,-0.2265,-0.2265,-0.2285,0,0,0,0,0,0,-0.2366,-0.2362,-0.2362,-0.2346,-0.2342,-0.2333,-0.232,-0.2317,-0.2312,-0.231,-0.2294,-0.2291,-0.228,-0.2275,-0.2274,-0.2278,-0.2265,-0.2264,-0.2264,-0.2265,-0.2284,-0.2286,-0.2288,0,0,0,0,0,-0.2367,-0.2368,-0.2362,-0.2359,-0.2341,-0.2333,-0.2331,-0.2318,-0.2312,-0.2312,-0.2302,-0.2292,-0.2279,-0.2275,-0.2273,-0.2277,-0.2263,-0.2264,-0.2265,-0.2283,-0.2285,-0.2288,0,0,0,0,0,0,-0.2385,-0.2366,-0.2359,-0.2355,-0.2346,-0.233,-0.2329,-0.2321,-0.2313,-0.2312,-0.2296,-0.2293,-0.2291,-0.2283,-0.228,-0.2279,-0.227,-0.227,-0.2284,-0.2287,-0.2289,-0.229,-0.2264,0,0,0,0,0,-0.2388,-0.2383,-0.2367,-0.2365,-0.2361,-0.2346,-0.2342,-0.2333,-0.2323,-0.2319,-0.2308,-0.2299,-0.2293,-0.2289,-0.2283,-0.2283,-0.228,-0.2284,-0.2287,-0.2288,-0.2289,-0.229,-0.2293,-0.2268,-0.2268,-0.2268,0,0,-0.2395,-0.2384,-0.2381,-0.2368,-0.236,-0.2356,-0.2343,-0.2338,-0.2335,-0.2318,-0.2314,-0.2306,-0.2295,-0.2294,-0.2293,-0.2288,-0.2295,-0.229,-0.2291,-0.2291,-0.2292,-0.2294,-0.2296,-0.2269,-0.2269,-0.2269,0,0,-0.2406,-0.2396,-0.2395,-0.2387,-0.2376,-0.2366,-0.2366,-0.2352,-0.2346,-0.2342,-0.233,-0.2327,-0.2316,-0.2309,-0.2305,-0.2316,-0.2307,-0.2314,-0.2325,-0.2327,-0.2329,-0.233,-0.2336,-0.2338,-0.2315,-0.2315,-0.2315,0,-0.2416,-0.2408,-0.2395,-0.2392,-0.2387,-0.2372,-0.2371,-0.2365,-0.2352,-0.2349,-0.2344,-0.2332,-0.2323,-0.2321,-0.2324,-0.232,-0.2321,-0.2316,-0.233,-0.2331,-0.2332,-0.2337,-0.2339,-0.2316,-0.2316,-0.2316,-0.2316,0,-0.2422,-0.2417,-0.2417,-0.2406,-0.2401,-0.2399,-0.2386,-0.2383,-0.2376,-0.2367,-0.2365,-0.2354,-0.2346,-0.2345,-0.2337,-0.2343,-0.234,-0.2332,-0.2323,-0.2336,-0.234,-0.2342,-0.2318,-0.2317,-0.2317,-0.2317,0,0,-0.2441,-0.2424,-0.2424,-0.242,-0.2407,-0.2404,-0.2402,-0.2395,-0.2393,-0.2385,-0.2384,-0.2377,-0.2371,-0.2365,-0.2357,-0.2358,-0.237,-0.235,-0.235,-0.2355,-0.2377,-0.2383,-0.2385,-0.2364,-0.2364,-0.2364,-0.2378,0,-0.245,-0.2445,-0.2435,-0.2434,-0.243,-0.2418,-0.2417,-0.241,-0.2403,-0.2399,-0.2391,-0.2387,-0.2378,-0.2375,-0.2376,-0.2368,-0.2374,-0.2367,-0.2364,-0.2364,-0.2367,-0.2387,-0.2393,-0.2407,-0.238,-0.238,-0.238,0,-0.2459,-0.2453,-0.2452,-0.2442,-0.244,-0.2439,-0.2433,-0.2429,-0.2422,-0.2417,-0.2412,-0.2403,-0.2402,-0.2394,-0.2393,-0.2388,-0.2387,-0.2383,-0.2383,-0.2382,-0.2373,-0.2388,-0.2411,-0.2413,-0.2383,-0.2382,-0.2382,0,-0.2474,-0.2466,-0.2465,-0.2461,-0.2449,-0.2449,-0.2444,-0.2436,-0.2433,-0.2428,-0.2427,-0.2421,-0.2419,-0.2415,-0.2406,-0.24,-0.2407,-0.2397,-0.2403,-0.2404,-0.2405,-0.2405,-0.2428,-0.2403,-0.2403,-0.2403,-0.2403,0,-0.2485,-0.2485,-0.2472,-0.2471,-0.2471,-0.246,-0.2461,-0.2455,-0.2449,-0.2448,-0.2437,-0.2436,-0.2424,-0.2422,-0.2415,-0.2416,-0.2415,-0.2411,-0.2409,-0.2412,-0.2413,-0.2411,-0.241,-0.2404,-0.2403,-0.2403,-0.2403,0,-0.2501,-0.2492,-0.249,-0.248,-0.2478,-0.2479,-0.247,-0.247,-0.2463,-0.2462,-0.2461,-0.2451,-0.2449,-0.2439,-0.2434,-0.2429,-0.2433,-0.2429,-0.2436,-0.2435,-0.2442,-0.2442,-0.2465,-0.2468,-0.2441,-0.2441,-0.2442,0,-0.2509,-0.2509,-0.2499,-0.2498,-0.2494,-0.2492,-0.2489,-0.2479,-0.2477,-0.247,-0.2471,-0.2468,-0.2465,-0.2463,-0.2455,-0.2452,-0.2448,-0.2457,-0.2447,-0.2451,-0.2449,-0.245,-0.245,-0.2458,-0.2459,-0.2459,-0.2459,0,-0.2523,-0.252,-0.2516,-0.2513,-0.2511,-0.2507,-0.2503,-0.2502,-0.2491,-0.249,-0.2488,-0.2486,-0.2482,-0.248,-0.2476,-0.2472,-0.2464,-0.2462,-0.2464,-0.2467,-0.2471,-0.247,-0.2442,-0.2462,-0.2461,-0.2461,-0.2461,-0.2461,-0.2536,-0.2536,-0.253,-0.2528,-0.2524,-0.2521,-0.2521,-0.2516,-0.2514,-0.251,-0.2504,-0.2504,-0.2499,-0.2493,-0.249,-0.249,-0.2485,-0.2487,-0.2487,-0.2488,-0.249,-0.2471,-0.2489,-0.2489,-0.2489,-0.2489,-0.2488,0,-0.2551,-0.2547,-0.2545,-0.254,-0.2539,-0.2533,-0.2529,-0.2528,-0.2528,-0.2524,-0.2522,-0.2521,-0.252,-0.2513,-0.2511,-0.2513,-0.2509,-0.2512,-0.2512,-0.2512,-0.2494,-0.2493,-0.2515,-0.2515,-0.2515,-0.2515,-0.2515,-0.2515,-0.2558,-0.2559,-0.2555,-0.2555,-0.2552,-0.2551,-0.255,-0.2548,-0.2545,-0.2544,-0.2543,-0.2539,-0.2535,-0.2533,-0.2532,-0.253,-0.253,-0.2535,-0.2532,-0.2515,-0.2513,-0.251,-0.251,-0.2535,-0.2535,-0.255,-0.255,-0.255]},{"header":{"parameterUnit":"m.s-1","parameterCategory":1,"la1":30.2991,"la2":30.254,"lo1":-89.0895,"lo2":-89.0444,"dy":0.0017,"dx":0.0017,"nx":28,"ny":28,"refTime":"2025-03-23T21:00:00:Z","depth":0,"parameterNumber":3,"parameterNumberName":"V-component_of_WINDS"},"data":[0,0,0,0,0,0,0,0,0,0,0,0,0,0,0,0,0,0,0,0,0,0,0,0,0,0,0,0,0,0,0,0,0,0,0,0,0,0,0,0,0,0,0,0,0,0,0,0,0,0,0,0,0,0,0,0,0,0,1.1706,1.1705,0,1.1626,1.1625,1.1625,1.158,1.1579,1.1579,1.1579,1.149,1.1488,1.1485,0,0,0,0,0,0,0,0,0,0,0,0,0,1.1811,1.181,1.1706,1.1705,1.1704,1.1627,1.1625,1.1624,1.158,1.1579,1.1579,1.1579,1.149,1.1488,1.1485,0,0,0,0,0,0,0,0,0,0,0,0,0,1.1752,1.1809,1.1706,1.1673,1.1669,1.1627,1.1625,1.1624,1.158,1.1579,1.1579,1.1579,1.1491,1.1488,1.1485,1.1467,0,0,1.1474,1.1473,0,0,0,0,0,0,0,0,1.1755,1.1748,1.1679,1.1675,1.1671,1.1613,1.163,1.1571,1.158,1.1613,1.1579,1.1579,1.153,1.1524,1.1509,1.1463,1.1459,1.1474,1.1472,1.1471,1.147,0,0,0,0,0,0,0,1.176,1.1751,1.1674,1.1678,1.1673,1.1659,1.165,1.1618,1.1573,1.161,1.1607,1.1599,1.1528,1.1512,1.1506,1.1458,1.1474,1.1471,1.1469,1.1468,1.1392,1.1392,0,0,0,0,0,0,1.177,1.1755,1.1677,1.1672,1.1714,1.1657,1.1647,1.1631,1.1574,1.1565,1.1599,1.1597,1.1518,1.1511,1.1503,1.1478,1.1471,1.1467,1.1465,1.1392,1.1392,1.1392,0,0,0,0,0,0,1.1773,1.1764,1.168,1.1713,1.1701,1.1656,1.1638,1.163,1.1614,1.1565,1.1556,1.1592,1.1518,1.1508,1.1477,1.1474,1.1466,1.1463,1.1392,1.1392,1.1392,1.1429,0,0,0,0,0,0,1.1776,1.1765,1.176,1.1713,1.1699,1.1658,1.1638,1.1629,1.161,1.1606,1.1556,1.1547,1.1517,1.1482,1.1473,1.147,1.146,1.1392,1.1392,1.1392,1.1428,1.143,1.1432,0,0,0,0,0,1.178,1.1772,1.176,1.1751,1.1693,1.1658,1.165,1.1617,1.161,1.1603,1.1571,1.1549,1.1476,1.1479,1.1469,1.1464,1.1392,1.1392,1.1392,1.1427,1.143,1.1432,0,0,0,0,0,0,1.1818,1.1766,1.1751,1.1729,1.1699,1.1651,1.1641,1.1622,1.1591,1.1589,1.1547,1.1535,1.1508,1.1482,1.1487,1.1443,1.1431,1.1429,1.1461,1.1464,1.1466,1.1473,1.1457,0,0,0,0,0,1.1824,1.1803,1.1757,1.1742,1.1727,1.1687,1.1671,1.1648,1.1614,1.16,1.1566,1.1531,1.15,1.148,1.1449,1.1423,1.1411,1.1415,1.1417,1.1419,1.1418,1.1401,1.1401,1.1392,1.1392,1.1392,0,0,1.1836,1.1805,1.1794,1.1749,1.1722,1.1699,1.1676,1.1652,1.1633,1.1595,1.1565,1.1538,1.1496,1.1467,1.1453,1.1445,1.1418,1.1419,1.1422,1.1419,1.1401,1.1402,1.1403,1.1392,1.1392,1.1392,0,0,1.1846,1.1821,1.1805,1.1779,1.1741,1.1714,1.171,1.1664,1.1646,1.1615,1.1585,1.156,1.1508,1.1479,1.1458,1.1455,1.1433,1.1446,1.1458,1.1441,1.1442,1.1443,1.144,1.144,1.1444,1.1445,1.1445,0,1.1865,1.1831,1.1798,1.1776,1.1756,1.1723,1.1704,1.168,1.1632,1.1618,1.1611,1.1544,1.1513,1.1477,1.1476,1.146,1.1452,1.1451,1.1445,1.1445,1.1445,1.1443,1.1442,1.1446,1.1446,1.1446,1.1446,0,1.1856,1.1832,1.1823,1.1781,1.1759,1.1739,1.1701,1.1683,1.1661,1.1634,1.1601,1.1563,1.1523,1.1513,1.1491,1.1472,1.1469,1.1454,1.1441,1.1449,1.1445,1.1444,1.1449,1.1448,1.1448,1.1447,0,0,1.1888,1.1828,1.1825,1.1804,1.1758,1.1738,1.1715,1.1678,1.1663,1.163,1.1608,1.1564,1.155,1.1526,1.15,1.1485,1.1484,1.1472,1.147,1.1475,1.1459,1.147,1.147,1.1469,1.1469,1.1468,1.1462,0,1.1891,1.1852,1.1821,1.1792,1.1768,1.1735,1.1714,1.1682,1.1656,1.1629,1.1598,1.1568,1.1553,1.1537,1.1522,1.1488,1.148,1.1488,1.1446,1.1445,1.1458,1.1468,1.1481,1.1477,1.1461,1.1461,1.146,0,1.189,1.1861,1.183,1.1786,1.1774,1.1757,1.172,1.1696,1.1658,1.1639,1.1612,1.1585,1.1556,1.1545,1.1503,1.1509,1.1489,1.147,1.1469,1.1463,1.1453,1.1463,1.1475,1.1474,1.1458,1.1458,1.1459,0,1.1916,1.1869,1.1844,1.1827,1.1775,1.1763,1.174,1.1702,1.1681,1.1648,1.1633,1.1596,1.1575,1.1545,1.1508,1.1504,1.1469,1.1455,1.145,1.1451,1.1444,1.1445,1.1453,1.1433,1.1433,1.1433,1.1433,0,1.1922,1.1905,1.1855,1.184,1.1818,1.1781,1.1759,1.1733,1.1699,1.1675,1.1643,1.1621,1.1574,1.1545,1.1515,1.1484,1.1474,1.1456,1.1449,1.1459,1.1462,1.1446,1.1445,1.1432,1.1432,1.1432,1.1433,0,1.1948,1.1915,1.1885,1.1838,1.1826,1.1812,1.177,1.1752,1.1723,1.1694,1.1685,1.1639,1.1603,1.1563,1.1514,1.1493,1.1464,1.1453,1.1478,1.1473,1.147,1.1471,1.1468,1.1465,1.1447,1.1448,1.1448,0,1.1955,1.1941,1.1892,1.1876,1.1854,1.1828,1.1807,1.1769,1.1748,1.1702,1.1689,1.1652,1.162,1.1564,1.1525,1.1486,1.1473,1.1475,1.1467,1.1478,1.1472,1.1473,1.1471,1.1477,1.1477,1.1478,1.1478,0,1.1969,1.1953,1.1926,1.1893,1.1869,1.184,1.181,1.1797,1.1752,1.173,1.1695,1.167,1.162,1.1582,1.1539,1.1511,1.1486,1.1481,1.1477,1.1488,1.1503,1.1494,1.1484,1.1481,1.1481,1.1481,1.148,1.148,1.1985,1.197,1.1934,1.1904,1.1878,1.185,1.1831,1.18,1.1771,1.173,1.1708,1.1672,1.1631,1.157,1.1544,1.1513,1.1505,1.15,1.1499,1.1498,1.1501,1.1509,1.1505,1.1505,1.1504,1.1504,1.1504,0,1.1997,1.1973,1.1946,1.1905,1.1881,1.1862,1.1826,1.1807,1.1777,1.1742,1.1712,1.167,1.1633,1.159,1.1549,1.1533,1.152,1.1523,1.1524,1.1518,1.1511,1.1518,1.1534,1.1534,1.1534,1.1534,1.1534,1.1534,1.2001,1.1975,1.1955,1.1914,1.1888,1.1856,1.1837,1.1809,1.1782,1.1738,1.1708,1.1681,1.1642,1.1598,1.1562,1.155,1.1536,1.1542,1.1527,1.1521,1.1518,1.1516,1.1522,1.154,1.154,1.1536,1.1536,1.1536]}]]